Regional Weather Roundup
Issued by NWS Green Bay, WI

Home | Current Version | Previous Version | Graphics & Text | Print | Product List | Glossary Off
Versions: 1 2 3 4 5 6 7 8 9 10 11 12 13 14 15 16 17 18 19 20 21 22 23 24 25 26 27 28 29 30 31 32 33 34 35 36 37 38 39 40 41 42 43 44 45 46 47 48 49 50

000
ASUS43 KGRB 220001
RWRGRB

NORTH-CENTRAL AND NORTHEAST WISCONSIN REGIONAL WEATHER ROUNDUP
NATIONAL WEATHER SERVICE GREEN BAY WI
700 PM CDT MON AUG 21 2017

WIZ005-009-010>012-018-019-220100-
NORTH CENTRAL WISCONSIN

CITY           SKY/WX    TMP DP  RH WIND       PRES   REMARKS
IRONWOOD       CLOUDY    66  64  93 E3        29.88F
MANITOWISH WTR NOT AVBL
ARBOR VITAE    NOT AVBL
EAGLE RIVER    NOT AVBL
LAND O LAKES   NOT AVBL
RHINELANDER    CLOUDY    68  67  96 SE6       29.92F
PHILLIPS       NOT AVBL
ANTIGO         NOT AVBL
TOMAHAWK       NOT AVBL
MERRILL        NOT AVBL
$$

WIZ013-073-220100-
NORTHEAST WISCONSIN

CITY           SKY/WX    TMP DP  RH WIND       PRES   REMARKS
IRON MOUNTAIN  TSTM      72  67  84 S8        29.89F
MARINETTE      CLOUDY    75  70  84 S5        29.90F
$$

WIZ017-030-035>037-045-220100-
CENTRAL WISCONSIN

CITY           SKY/WX    TMP DP  RH WIND       PRES   REMARKS
MEDFORD        NOT AVBL
WAUSAU         CLOUDY    73  66  78 SW3       29.91S
MOSINEE        NOT AVBL
MARSHFIELD     CLOUDY    71  63  75 SW8       29.91F
WISC RAPIDS    CLOUDY    74  65  73 W7        29.93F
STEVENS POINT  NOT AVBL
WAUPACA        NOT AVBL
SHAWANO        NOT AVBL
CLINTONVILLE   NOT AVBL
WAUTOMA        CLOUDY    75  67  76 SW6         N/A
$$

WIZ038-039-048-051-220100-
FOX VALLEY

CITY           SKY/WX    TMP DP  RH WIND       PRES   REMARKS
NWS GREEN BAY  CLOUDY    76  70  82 S6        29.91F
APPLETON       MOCLDY    75  64  69 VRB6      29.92S
OSHKOSH        CLOUDY    76  70  82 S7        29.93S
FOND DU LAC    MOCLDY    77  69  76 SW3       29.94F
$$

WIZ022-050-052-220100-
EAST CENTRAL WISCONSIN

CITY           SKY/WX    TMP DP  RH WIND       PRES   REMARKS
EPHRAIM        NOT AVBL
WASHINGTON ISL NOT AVBL
STURGEON BAY   CLOUDY    73  68  84 S10       29.92F
MANITOWOC      NOT AVBL
SHEBOYGAN      MOCLDY    75  72  90 S10       29.94S
$$

LMZ563-521-522-541>543-220100-
LAKESHORE

STATION/POSITION TIME  TEMP    WIND        PRES    VSBY  WAVE
                       AIR SEA DIR/SP/G                  HT/PER
                 (UTC) (F)     (DEG/KT/KT) (MB)    (MI)  (FT/S)
SHEBOYGAN LKSHOR 2300   72     170/ 10/ 11 1013.3F
KEWAUNEE LKSHORE 2330   70     180/  7/  8 1012.5F
NORTHPORT PIER   2340   71     150/  4/  5 1012.5F
N MID LAKE BUOY  2250   69 69  200/  6/  8 1013.9R         1
S GREEN BAY BUOY 2330   76 74  190/  6/  6 1012.3F
SISTER BAY LKSHO 2318   75     170/  7/  9   N/A
MENOMINEE LKSHOR 2330   73     120/  3/  3 1012.2F
$$




USA.gov is the U.S. government's official web portal to all federal, state and local government web resources and services.